Location: Buckland
(65.9785°N, 161.1281°W)
Time: 07:02:50
(UTC+00:00)

Transit 2A Rocket - Pass Details

Date: 29 November 2020
Orbit: 592 x 910 km, 66.7° (Epoch: 21 January)

Event Time Altitude Azimuth Distance (km) Brightness Sun altitude
Exits shadow 16:59:03 29° 274° (W) 1,434 5.8 -17.1°
Maximum altitude 17:01:56 83° 0° (N) 775 4.9 -16.8°
Drops below altitude 10° 17:06:58 10° 89° (E) 2,192 8.5 -16.3°
Sets 17:09:13 0° 90° (E) 3,063 9.6 -16.1°
